Powrót do katalogu

DELTA 1 DEB

AktywnySSO
NORAD 42573·DEBRIS·🇺🇸 United States

Wystrzelony Nov 6, 1973 z Vandenberg Space Force Base

Loading…

Następne Przeloty (najbliższe 24 godziny)

TLE

ŚwieżeSource: Space-Track

Epoka: Sep 14, 2026, 05:42 UTC

1 42573U 73086HM  26257.23782370  .00000044  00000-0  61230-3 0  9992
2 42573 101.9193 358.9164 0040798 186.6289 201.8915 12.46303264582496

Śledź DELTA 1 DEB w czasie rzeczywistym z AllMySat

Download on the App Store